World > North America > United States > Georgia   City of Savannah, GA

Hourly Savannah, GA Regional Weather

Feedback E-mail the Weather

Latest News

Savannah, GA Weather Maps

°F °C°F °C
Savannah Weather Map
UTC Time: 5/26/2022, 18:21
Your Time:

Savannah, GA Regional Weather

Expires:202205261900;;614915
ASUS42 KCHS 261812
RWRCHS

Regional Weather Roundup
National Weather Service Charleston SC
200 PM EDT THU MAY 26 2022

NOTE: "fair" indicates few or no clouds below 12,000 feet with no
significant weather and/or obstructions to visibility.

Not all stations are quality controlled. Use data with caution,
especially dewpoint observations.


GAZ063-065-086>088-099>101-113>116-118-119-134>141-150-261900-
...Southeast Georgia...
  
CITY           SKY/WX    TMP DP  RH WIND       PRES   REMARKS
Savannah Arpt  PTSUNNY   85  64  49 S15       30.10F                  
6HR MIN TEMP:  76; 6HR MAX TEMP:  87;                                

Hunter AAF     PTSUNNY   85  77  78 SE16G24   30.08F HX  95           
6HR MIN TEMP:  78; 6HR MAX TEMP:  86;                                

Fort Stewart   PTSUNNY   87  70  56 S10       30.06F HX  92           
6HR MIN TEMP:  73; 6HR MAX TEMP:  87;                                

Statesboro     PTSUNNY   85  65  51 SE7       30.08F                  
Sylvania       MOCLDY    86  68  54 S6        30.09F                  
Claxton        FAIR      86  71  59 SE5       30.08F HX  91           
Millen         MOCLDY    86  70  58 S15       30.08F HX  91           
Metter         FAIR      85  71  62 SE5G17    30.08F HX  90           
Reidsville     FAIR      86  69  56 S12       30.08F HX  90           

...CSRA, Central and far Southeast Georgia...
  
CITY           SKY/WX    TMP DP  RH WIND       PRES   REMARKS
Thomson        PTSUNNY   82  73  74 S10G18    30.05F                  
Augusta-Bush   MOSUNNY   86  68  54 S15G24    30.05F                  
6HR MIN TEMP:  72; 6HR MAX TEMP:  86;                                

Augusta-Daniel MOSUNNY   87  66  49 S15G26    30.07F                  
Swainsboro     MOCLDY    86  68  54 S13G20    30.08F                  
Vidalia        PTSUNNY   86  70  58 S7        30.08F HX  90           
Eastman        MOCLDY    84  70  61 S16G22    30.05F                  
Hazlehurst     FAIR      86  69  56 S9G20     30.06F                  
Alma           CLOUDY    84  69  60 S15G24    30.07F                  
6HR MIN TEMP:  73; 6HR MAX TEMP:  86;                                

Waycross       CLOUDY    85  71  62 S9        30.08F HX  91           
Jesup          FAIR      86  68  54 S6        30.11F                  
Baxley         PTSUNNY   84  70  61 S10       30.08S                  
Brunswick      PTSUNNY   84  68  58 S12G22    30.11S                  
Saint Simons   PTSUNNY   84  70  62 S15G22    30.11F                  
6HR MIN TEMP:  79; 6HR MAX TEMP:  85;                                


$$


SKY/WX - Weather  TMP - Temperature  DP - Dew Point  RH - Humidity
WIND - Wind Direction/Speed PRES - Barometric Pressure VSB - Visibility
WCI - Wind Chill Index E13G22 Wind - East Wind 13 mph/Gusts of 22 mph

Trending Headlines

Savannah Radar Loop



Savannah Quick Facts


National Two Day Weather Forecast


E-mail the Savannah Weather Forecast

Voice your opinion or tell us about page issues...